DW3800 Weather Reports


time (UTC)temp
C
wind
direction
speed
KPH
gust
KPH
rain 1hr
cm
rain 24hr
cm
rain mn
cm
humidity
%
barometer
mb
20260507192606 11 246 8.0 11.3 0.00 0.00 0.00 32 1013.3
20260507192103 12 294 9.7 11.3 0.00 0.00 0.00 31 1013.6
20260507191558 12 200 0.0 9.7 0.00 0.00 0.00 32 1013.6
20260507191055 12 233 1.6 9.7 0.00 0.00 0.00 31 1013.8
20260507190552 12 234 1.6 8.0 0.00 0.00 0.00 35 1013.6
20260507190051 11 175 4.8 9.7 0.00 0.00 0.00 32 1013.5
20260507185549 12 217 11.3 20.9 0.00 0.00 0.00 31 1013.6
20260507185045 11 129 1.6 4.8 0.00 0.00 0.00 32 1013.5
20260507184544 11 248 1.6 9.7 0.00 0.00 0.00 33 1013.7
20260507184041 11 217 3.2 11.3 0.00 0.00 0.00 34 1013.9
20260507183537 11 127 3.2 12.9 0.00 0.00 0.00 32 1013.9
20260507183034 11 282 4.8 14.5 0.00 0.00 0.00 33 1013.7
20260507182530 11 194 1.6 8.0 0.00 0.00 0.00 34 1013.8
20260507182026 11 206 6.4 11.3 0.00 0.00 0.00 32 1013.9
20260507181523 11 220 3.2 12.9 0.00 0.00 0.00 35 1014.0
20260507181020 11 233 8.0 12.9 0.00 0.00 0.00 33 1013.8
20260507180516 11 150 1.6 4.8 0.00 0.00 0.00 33 1014.0
20260507180013 11 158 4.8 11.3 0.00 0.00 0.00 33 1013.8
20260507175509 10 119 3.2 11.3 0.00 0.00 0.00 32 1014.1
20260507175007 11 224 6.4 11.3 0.00 0.00 0.00 32 1014.0
20260507174504 11 227 8.0 11.3 0.00 0.00 0.00 32 1014.1
20260507174002 10 267 8.0 14.5 0.00 0.00 0.00 33 1014.0
20260507173458 10 102 6.4 8.0 0.00 0.00 0.00 33 1014.1
20260507172955 10 125 0.0 12.9 0.00 0.00 0.00 36 1014.1
20260507172451 10 160 8.0 11.3 0.00 0.00 0.00 34 1014.2
20260507171948 10 177 11.3 16.1 0.00 0.00 0.00 34 1014.3
20260507171444 10 162 3.2 11.3 0.00 0.00 0.00 33 1014.4
20260507170941 9 46 1.6 8.0 0.00 0.00 0.00 35 1014.3
20260507170438 10 151 1.6 3.2 0.00 0.00 0.00 35 1014.5
20260507165934 10 185 9.7 14.5 0.00 0.00 0.00 35 1014.4
20260507165430 10 160 4.8 11.3 0.00 0.00 0.00 35 1014.5
20260507164926 10 147 3.2 9.7 0.00 0.00 0.00 35 1014.8
20260507164423 10 207 3.2 14.5 0.00 0.00 0.00 36 1014.7
20260507163920 10 171 3.2 4.8 0.00 0.00 0.00 38 1014.7
20260507163418 10 257 3.2 4.8 0.00 0.00 0.00 39 1014.7
20260507162914 10 10 4.8 11.3 0.00 0.00 0.00 39 1014.8
20260507162410 9 298 6.4 8.0 0.00 0.00 0.00 38 1014.9
20260507161908 9 170 8.0 9.7 0.00 0.00 0.00 39 1014.9
20260507161403 9 241 6.4 8.0 0.00 0.00 0.00 39 1014.9
20260507160900 9 213 6.4 11.3 0.00 0.00 0.00 38 1014.9
20260507160356 10 50 0.0 11.3 0.00 0.00 0.00 40 1014.8
20260507155852 9 27 1.6 4.8 0.00 0.00 0.00 40 1015.0
20260507155348 8 132 1.6 4.8 0.00 0.00 0.00 42 1014.9
20260507154845 8 264 3.2 3.2 0.00 0.00 0.00 42 1015.0
20260507154342 8 351 0.0 9.7 0.00 0.00 0.00 45 1015.1
20260507153839 9 223 6.4 9.7 0.00 0.00 0.00 41 1015.1
20260507153336 8 329 3.2 8.0 0.00 0.00 0.00 42 1014.9
20260507152832 8 201 3.2 9.7 0.00 0.00 0.00 44 1015.1
20260507152329 8 209 9.7 11.3 0.00 0.00 0.00 43 1015.2
20260507151825 8 288 3.2 9.7 0.00 0.00 0.00 44 1015.1
20260507151321 8 191 3.2 4.8 0.00 0.00 0.00 45 1015.0
20260507150818 8 71 1.6 3.2 0.00 0.00 0.00 47 1014.8
20260507150315 7 188 11.3 12.9 0.00 0.00 0.00 48 1015.4
20260507145811 7 213 4.8 8.0 0.00 0.00 0.00 47 1015.1
20260507145308 7 72 3.2 3.2 0.00 0.00 0.00 45 1015.0
20260507144805 7 65 1.6 4.8 0.00 0.00 0.00 46 1015.1
20260507144302 7 79 3.2 4.8 0.00 0.00 0.00 46 1015.1
20260507143758 7 165 6.4 8.0 0.00 0.00 0.00 47 1015.1
20260507143256 6 183 6.4 8.0 0.00 0.00 0.00 46 1015.4
20260507142751 7 8 0.0 4.8 0.00 0.00 0.00 47 1015.4
20260507142248 7 261 6.4 8.0 0.00 0.00 0.00 47 1015.4
20260507141745 6 18 0.0 3.2 0.00 0.00 0.00 46 1015.2
20260507141242 7 205 3.2 9.7 0.00 0.00 0.00 47 1015.5
20260507140738 7 349 1.6 8.0 0.00 0.00 0.00 49 1015.5
20260507140236 6 344 1.6 3.2 0.00 0.00 0.00 50 1015.5
20260507135732 7 211 3.2 4.8 0.00 0.00 0.00 53 1015.5
20260507135230 6 1 0.0 3.2 0.00 0.00 0.00 51 1015.5
20260507134726 6 225 1.6 4.8 0.00 0.00 0.00 52 1015.5
20260507134222 6 16 1.6 8.0 0.00 0.00 0.00 56 1015.6
20260507133718 6 205 6.4 9.7 0.00 0.00 0.00 57 1015.6
20260507133215 6 237 4.8 9.7 0.00 0.00 0.00 57 1015.7
20260507132713 6 179 4.8 8.0 0.00 0.00 0.00 58 1015.5
20260507132209 6 221 1.6 4.8 0.00 0.00 0.00 60 1015.4
20260507131706 6 343 0.0 3.2 0.00 0.00 0.00 60 1015.7
20260507131204 5 169 4.8 4.8 0.00 0.00 0.00 60 1015.5
20260507130700 5 247 3.2 4.8 0.00 0.00 0.00 61 1015.8
20260507130158 5 330 0.0 1.6 0.00 0.00 0.00 63 1015.7
20260507125656 5 4 0.0 1.6 0.00 0.00 0.00 65 1015.6
20260507125154 5 148 1.6 1.6 0.00 0.00 0.00 66 1015.6
20260507124649 5 304 0.0 3.2 0.00 0.00 0.00 67 1015.6
20260507124147 5 259 1.6 3.2 0.00 0.00 0.00 68 1015.9
20260507123646 4 212 1.6 3.2 0.00 0.00 0.00 69 1015.7
20260507123142 4 256 1.6 3.2 0.00 0.00 0.00 70 1015.6
20260507122637 3 290 0.0 3.2 0.00 0.00 0.00 71 1015.7
20260507122133 3 215 1.6 1.6 0.00 0.00 0.00 72 1015.8
20260507121630 3 211 3.2 3.2 0.00 0.00 0.00 72 1015.7
20260507121126 3 192 1.6 3.2 0.00 0.00 0.00 73 1015.8
20260507120622 3 243 1.6 1.6 0.00 0.00 0.00 73 1015.6
20260507120119 3 259 1.6 3.2 0.00 0.00 0.00 74 1015.9
20260507115615 2 272 0.0 3.2 0.00 0.00 0.00 75 1015.7
20260507115111 2 268 0.0 1.6 0.00 0.00 0.00 75 1015.8
20260507114607 2 253 0.0 1.6 0.00 0.00 0.00 77 1015.6
20260507114104 1 245 0.0 1.6 0.00 0.00 0.00 79 1015.7
20260507113601 0 246 0.0 0.0 0.00 0.00 0.00 82 1015.5
20260507113059 0 216 0.0 0.0 0.00 0.00 0.00 83 1015.6
20260507112556 0 212 0.0 0.0 0.00 0.00 0.00 83 1015.7
20260507112053 0 211 0.0 0.0 0.00 0.00 0.00 82 1015.6
20260507111550 0 211 0.0 0.0 0.00 0.00 0.00 81 1015.7
20260507111047 0 211 0.0 0.0 0.00 0.00 0.00 82 1015.6
20260507110543 0 211 0.0 0.0 0.00 0.00 0.00 82 1015.6
20260507110040 0 215 0.0 0.0 0.00 0.00 0.00 82 1015.8
20260507105537 0 215 0.0 0.0 0.00 0.00 0.00 81 1015.8
20260507105032 0 209 0.0 1.6 0.00 0.00 0.00 82 1015.6
20260507104530 0 230 0.0 0.0 0.00 0.00 0.00 82 1015.4
20260507104026 0 230 0.0 0.0 0.00 0.00 0.00 81 1015.7
20260507103522 1 230 0.0 0.0 0.00 0.00 0.00 80 1015.6
20260507103019 1 234 0.0 0.0 0.00 0.00 0.00 80 1015.5
20260507102516 1 233 0.0 1.6 0.00 0.00 0.00 80 1015.6
20260507102012 1 231 0.0 0.0 0.00 0.00 0.00 79 1015.6
20260507101507 1 216 0.0 0.0 0.00 0.00 0.00 80 1015.6
20260507101004 0 242 0.0 0.0 0.00 0.00 0.00 82 1015.8
20260507100502 0 242 0.0 0.0 0.00 0.00 0.00 81 1015.8
20260507095959 0 220 0.0 0.0 0.00 0.00 0.00 81 1015.8
20260507095457 0 220 0.0 0.0 0.00 0.00 0.00 80 1015.7
20260507094954 1 220 0.0 0.0 0.00 0.00 0.00 79 1015.7
20260507094450 1 220 0.0 0.0 0.00 0.00 0.00 78 1015.7
20260507093947 1 220 0.0 1.6 0.00 0.00 0.00 78 1015.8
20260507093445 1 209 0.0 0.0 0.00 0.00 0.00 78 1015.8
20260507092943 1 222 0.0 1.6 0.00 0.00 0.00 77 1015.7
20260507092438 1 236 0.0 0.0 0.00 0.00 0.00 77 1015.9
20260507091936 1 221 0.0 0.0 0.00 0.00 0.00 78 1015.8
20260507091432 1 220 0.0 0.0 0.00 0.00 0.00 78 1015.9
20260507090928 1 220 0.0 0.0 0.00 0.00 0.00 77 1015.8
20260507090424 1 224 0.0 1.6 0.00 0.00 0.00 77 1015.9
20260507085921 1 216 0.0 1.6 0.00 0.00 0.00 77 1015.7
20260507085418 1 216 0.0 0.0 0.00 0.00 0.00 76 1015.8
20260507084915 1 213 0.0 0.0 0.00 0.00 0.00 77 1015.6
20260507084412 1 204 0.0 1.6 0.00 0.00 0.00 76 1015.8
20260507083909 1 215 0.0 1.6 0.00 0.00 0.00 76 1015.9
20260507083405 1 206 0.0 1.6 0.00 0.00 0.00 77 1015.8
20260507082902 1 221 0.0 0.0 0.00 0.00 0.00 78 1015.7
20260507082357 1 209 0.0 0.0 0.00 0.00 0.00 77 1015.7
20260507081855 1 209 0.0 0.0 0.00 0.00 0.00 76 1015.8
20260507081351 1 209 0.0 0.0 0.00 0.00 0.00 75 1015.8
20260507080848 1 209 0.0 1.6 0.00 0.00 0.00 75 1015.8
20260507080344 1 214 0.0 0.0 0.00 0.00 0.00 78 1015.8
20260507075839 0 215 0.0 0.0 0.00 0.00 0.00 78 1015.5
20260507075335 0 215 0.0 0.0 0.00 0.00 0.00 78 1015.8
20260507074832 1 215 0.0 0.0 0.00 0.00 0.00 77 1015.9
20260507074330 1 215 0.0 0.0 0.00 0.00 0.00 77 1015.7
20260507073827 1 215 0.0 0.0 0.00 0.00 0.00 76 1015.9
20260507073323 1 215 0.0 0.0 0.00 0.00 0.00 76 1015.6
20260507072821 1 215 0.0 0.0 0.00 0.00 0.00 75 1015.8
20260507072318 1 215 0.0 0.0 0.00 0.00 0.00 75 1015.9
20260507071815 1 215 0.0 0.0 0.00 0.00 0.00 75 1016.1
20260507071312 1 215 0.0 0.0 0.00 0.00 0.00 73 1016.2
20260507070808 1 215 0.0 0.0 0.00 0.00 0.00 73 1016.3
20260507070306 1 215 0.0 0.0 0.00 0.00 0.00 73 1016.2
20260507065802 2 215 0.0 0.0 0.00 0.00 0.00 72 1016.3
20260507065259 2 215 0.0 0.0 0.00 0.00 0.00 72 1016.0
20260507064756 2 215 0.0 0.0 0.00 0.00 0.00 71 1016.3
20260507064255 1 215 0.0 0.0 0.00 0.00 0.00 73 1016.2
20260507063752 1 215 0.0 0.0 0.00 0.00 0.00 72 1016.3
20260507063249 1 215 0.0 0.0 0.00 0.00 0.00 72 1016.2
20260507062746 1 215 0.0 0.0 0.00 0.00 0.00 73 1016.5
20260507062243 1 186 0.0 0.0 0.00 0.00 0.00 74 1016.5
20260507061741 1 186 0.0 1.6 0.00 0.00 0.00 73 1016.6
20260507061238 1 228 0.0 0.0 0.00 0.00 0.00 74 1016.6
20260507060737 2 229 0.0 0.0 0.00 0.00 0.00 73 1016.4
20260507060233 2 229 0.0 0.0 0.00 0.00 0.00 73 1016.6
20260507055729 2 228 0.0 0.0 0.00 0.00 0.00 74 1016.6
20260507055225 2 228 0.0 0.0 0.00 0.00 0.00 73 1016.6
20260507054721 2 229 0.0 0.0 0.00 0.00 0.00 74 1016.7
20260507054218 2 228 0.0 0.0 0.00 0.00 0.00 74 1016.6
20260507053716 2 228 0.0 0.0 0.00 0.00 0.00 74 1016.6
20260507053213 2 229 0.0 0.0 0.00 0.00 0.00 74 1016.6
20260507052712 2 228 0.0 0.0 0.00 0.00 0.00 73 1016.7
20260507052208 2 228 0.0 0.0 0.00 0.00 0.00 73 1016.8
20260507051706 2 228 0.0 0.0 0.00 0.00 0.00 73 1016.8
20260507051202 2 228 0.0 0.0 0.00 0.00 0.00 72 1016.8
20260507050659 2 228 0.0 0.0 0.00 0.00 0.00 72 1016.8
20260507050156 3 228 0.0 0.0 0.00 0.00 0.00 72 1016.8
20260507045653 3 228 0.0 0.0 0.00 0.00 0.00 71 1016.6
20260507045149 3 228 0.0 0.0 0.00 0.00 0.00 70 1016.8
20260507044646 3 228 0.0 0.0 0.00 0.00 0.00 70 1017.0
20260507044143 3 215 0.0 0.0 0.00 0.00 0.00 69 1016.9
20260507043639 3 215 0.0 0.0 0.00 0.00 0.00 69 1017.1
20260507043136 3 214 0.0 0.0 0.00 0.00 0.00 68 1016.9
20260507042633 3 209 0.0 0.0 0.00 0.00 0.00 68 1017.0
20260507042127 2 209 0.0 0.0 0.00 0.00 0.00 69 1017.1
20260507041625 3 209 0.0 0.0 0.00 0.00 0.00 68 1017.2
20260507041121 3 217 0.0 0.0 0.00 0.00 0.00 67 1017.0
20260507040619 3 212 0.0 0.0 0.00 0.00 0.00 68 1016.9
20260507040115 3 214 0.0 0.0 0.00 0.00 0.00 67 1017.0
20260507035611 3 204 0.0 3.2 0.00 0.00 0.00 67 1017.1
20260507035107 2 205 0.0 0.0 0.00 0.00 0.00 69 1017.2
20260507034604 2 222 0.0 0.0 0.00 0.00 0.00 70 1017.2
20260507034102 2 244 0.0 0.0 0.00 0.00 0.00 71 1017.0
20260507033600 1 244 0.0 0.0 0.00 0.00 0.00 71 1017.1
20260507033056 1 244 0.0 0.0 0.00 0.00 0.00 71 1017.1
20260507032554 1 244 0.0 0.0 0.00 0.00 0.00 72 1017.2
20260507032050 2 244 0.0 0.0 0.00 0.00 0.00 71 1017.0
20260507031546 2 244 0.0 0.0 0.00 0.00 0.00 71 1017.4
20260507031043 2 243 0.0 0.0 0.00 0.00 0.00 70 1017.2
20260507030540 2 223 0.0 0.0 0.00 0.00 0.00 69 1017.5
20260507030038 2 205 0.0 1.6 0.00 0.00 0.00 69 1017.4
20260507025535 2 224 0.0 0.0 0.00 0.00 0.00 68 1017.3
20260507025032 2 246 0.0 0.0 0.00 0.00 0.00 68 1017.5
20260507024530 2 247 0.0 0.0 0.00 0.00 0.00 67 1017.4
20260507024026 2 257 0.0 0.0 0.00 0.00 0.00 66 1017.6
20260507023522 3 236 0.0 0.0 0.00 0.00 0.00 65 1017.5
20260507023020 3 214 0.0 0.0 0.00 0.00 0.00 63 1017.5
20260507022516 3 232 0.0 0.0 0.00 0.00 0.00 61 1017.3
20260507022012 4 262 0.0 1.6 0.00 0.00 0.00 61 1017.4
20260507021508 4 257 0.0 1.6 0.00 0.00 0.00 59 1017.3
20260507021005 5 258 1.6 1.6 0.00 0.00 0.00 58 1017.4
20260507020502 5 208 0.0 3.2 0.00 0.00 0.00 58 1017.5
20260507015959 5 223 0.0 1.6 0.00 0.00 0.00 56 1017.5
20260507015458 5 224 1.6 3.2 0.00 0.00 0.00 56 1017.3
20260507014954 5 222 1.6 1.6 0.00 0.00 0.00 55 1017.4
20260507014451 5 215 3.2 3.2 0.00 0.00 0.00 55 1017.2
20260507013946 5 251 3.2 3.2 0.00 0.00 0.00 54 1017.3
20260507013443 6 245 1.6 3.2 0.00 0.00 0.00 55 1017.2
20260507012941 6 249 0.0 1.6 0.00 0.00 0.00 55 1017.4
20260507012438 6 210 4.8 4.8 0.00 0.00 0.00 54 1017.3
20260507011934 6 241 3.2 4.8 0.00 0.00 0.00 54 1017.3
20260507011431 6 223 3.2 8.0 0.00 0.00 0.00 54 1017.3
20260507010926 6 228 3.2 3.2 0.00 0.00 0.00 53 1017.3
20260507010421 6 233 1.6 3.2 0.00 0.00 0.00 53 1017.3
20260507005918 6 233 3.2 4.8 0.00 0.00 0.00 52 1017.4
20260507005415 6 248 4.8 4.8 0.00 0.00 0.00 52 1017.4
20260507004912 6 273 1.6 4.8 0.00 0.00 0.00 53 1017.4
20260507004409 6 223 4.8 11.3 0.00 0.00 0.00 53 1017.3
20260507003906 6 226 4.8 8.0 0.00 0.00 0.00 53 1017.3
20260507003401 6 157 0.0 3.2 0.00 0.00 0.00 54 1017.4
20260507002857 6 236 4.8 9.7 0.00 0.00 0.00 52 1017.3
20260507002353 6 241 4.8 8.0 0.00 0.00 0.00 52 1017.5
20260507001850 6 228 4.8 8.0 0.00 0.00 0.00 53 1017.4
20260507001347 6 149 8.0 12.9 0.00 0.00 0.00 52 1017.4
20260507000844 6 215 11.3 16.1 0.00 0.00 0.00 52 1017.7
20260507000339 6 142 4.8 11.3 0.00 0.00 0.00 52 1017.5
20260506235836 6 223 1.6 9.7 0.00 0.00 0.00 53 1017.3
20260506235333 6 243 8.0 9.7 0.00 0.00 0.00 52 1017.5
20260506234828 6 281 3.2 4.8 0.00 0.00 0.00 53 1017.7
20260506234326 6 240 4.8 8.0 0.00 0.00 0.00 52 1017.6
20260506233824 6 180 4.8 11.3 0.00 0.00 0.00 52 1017.5
20260506233319 6 173 6.4 8.0 0.00 0.00 0.00 53 1017.8
20260506232817 6 186 3.2 11.3 0.00 0.00 0.00 53 1017.5
20260506232312 6 242 1.6 9.7 0.00 0.00 0.00 54 1017.6
20260506231809 6 242 6.4 9.7 0.00 0.00 0.00 52 1017.6
20260506231307 6 138 4.8 14.5 0.00 0.00 0.00 52 1017.7
20260506230804 6 209 4.8 8.0 0.00 0.00 0.00 52 1017.7
20260506230301 6 222 4.8 11.3 0.00 0.00 0.00 53 1017.5
20260506225757 6 249 8.0 14.5 0.00 0.00 0.00 52 1017.7
20260506225254 6 235 1.6 12.9 0.00 0.00 0.00 51 1017.6
20260506224751 6 239 4.8 8.0 0.00 0.00 0.00 51 1017.7
20260506224248 6 226 6.4 9.7 0.00 0.00 0.00 52 1017.9
20260506223744 6 256 3.2 4.8 0.00 0.00 0.00 53 1017.8
20260506223240 6 227 8.0 16.1 0.00 0.00 0.00 52 1017.6
20260506222737 6 210 6.4 11.3 0.00 0.00 0.00 52 1017.8
20260506222232 6 216 6.4 14.5 0.00 0.00 0.00 52 1017.9
20260506221731 6 216 9.7 16.1 0.00 0.00 0.00 52 1017.9
20260506221229 6 166 6.4 9.7 0.00 0.00 0.00 52 1017.8
20260506220726 6 249 4.8 9.7 0.00 0.00 0.00 53 1018.1
20260506220220 6 230 6.4 9.7 0.00 0.00 0.00 54 1017.8
20260506215717 6 222 3.2 11.3 0.00 0.00 0.00 53 1017.9
20260506215212 6 271 6.4 9.7 0.00 0.00 0.00 53 1017.9
20260506214709 6 208 11.3 16.1 0.00 0.00 0.00 53 1018.1
20260506214207 6 151 3.2 14.5 0.00 0.00 0.00 54 1018.0
20260506213705 6 210 9.7 14.5 0.00 0.00 0.00 53 1018.1
20260506213202 6 206 3.2 9.7 0.00 0.00 0.00 54 1018.3
20260506212659 6 181 8.0 14.5 0.00 0.00 0.00 54 1018.3
20260506212154 6 168 8.0 9.7 0.00 0.00 0.00 54 1018.2
20260506211650 6 226 8.0 12.9 0.00 0.00 0.00 53 1018.3
20260506211147 6 255 8.0 12.9 0.00 0.00 0.00 53 1018.3
20260506210643 6 201 6.4 11.3 0.00 0.00 0.00 54 1018.3
20260506210140 5 164 11.3 14.5 0.00 0.00 0.00 53 1018.3
20260506205638 6 222 6.4 11.3 0.00 0.00 0.00 53 1018.3
20260506205132 5 193 6.4 11.3 0.00 0.00 0.00 53 1018.2
20260506204631 5 170 9.7 16.1 0.00 0.00 0.00 54 1018.4
20260506204127 6 168 6.4 9.7 0.00 0.00 0.00 53 1018.3
20260506203625 6 241 1.6 9.7 0.00 0.00 0.00 53 1018.4
20260506203122 5 275 3.2 9.7 0.00 0.00 0.00 52 1018.4
20260506202620 5 205 12.9 14.5 0.00 0.00 0.00 52 1018.3
20260506202116 5 249 8.0 14.5 0.00 0.00 0.00 52 1018.6
20260506201613 6 174 3.2 4.8 0.00 0.00 0.00 53 1018.2
20260506201109 5 227 6.4 12.9 0.00 0.00 0.00 52 1018.3
20260506200606 5 243 6.4 9.7 0.00 0.00 0.00 53 1018.5
20260506195559 5 208 4.8 9.7 0.00 0.00 0.00 54 1018.3
20260506195056 5 232 4.8 11.3 0.00 0.00 0.00 54 1018.6
20260506194554 5 222 9.7 11.3 0.00 0.00 0.00 52 1018.6
20260506194049 5 228 6.4 14.5 0.00 0.00 0.00 53 1018.2
20260506193547 5 231 4.8 12.9 0.00 0.00 0.00 53 1018.4
20260506193044 5 189 1.6 17.7 0.00 0.00 0.00 53 1018.6